Overview Statistics Trail Chart Weather Telemetry Raw packets
 

This is the latest recevied weather packets stored in our database for station/object KC9DRE. If no packets are shown the sender has not sent any weather packets the latest 10 day(s).

<< 75 76 77 78 79 80 81 >>
Time Temp. Humidity Pressure Rain* Wind** Luminosity Snow
1777380696 17.22° C 98% 1014.3 hPa 0 mm - 39 W/m² -
1777380387 17.22° C 98% 1014.2 hPa 0 mm - 63 W/m² -
1777380084 17.22° C 98% 1014.2 hPa 0 mm - 75 W/m² -
1777379779 17.22° C 98% 1014.4 hPa 0 mm - 52 W/m² -
1777379475 17.22° C 98% 1014.3 hPa 0 mm - 54 W/m² -
1777379170 16.67° C 98% 1014.1 hPa 0 mm - 51 W/m² -
1777378866 16.67° C 98% 1014.2 hPa 0 mm - 34 W/m² -
1777378562 16.67° C 98% 1013.9 hPa 0 mm - 68 W/m² -
1777378258 16.67° C 98% 1013.8 hPa 0 mm - 30 W/m² -
1777377956 16.67° C 98% 1013.7 hPa 0 mm - 29 W/m² -
1777377656 16.67° C 98% 1013.6 hPa 0 mm - 17 W/m² -
1777377352 16.67° C 98% 1013.5 hPa 0 mm - 12 W/m² -
1777377049 16.67° C 98% 1013.5 hPa 0 mm - 14 W/m² -
1777376746 16.67° C 98% 1013.6 hPa 0 mm - 13 W/m² -
1777376443 16.67° C 98% 1013.4 hPa 0 mm - 13 W/m² -
1777376138 16.67° C 98% 1013.4 hPa 0 mm - 13 W/m² -
1777375838 16.67° C 98% 1013.3 hPa 0 mm - 9 W/m² -
1777375533 16.67° C 98% 1013.2 hPa 0 mm - 10 W/m² -
1777375230 16.67° C 98% 1013.1 hPa 0 mm - 10 W/m² -
1777374925 16.67° C 98% 1013 hPa 0 mm - 7 W/m² -
1777374622 16.67° C 98% 1012.9 hPa 0 mm - 4 W/m² -
1777374318 16.67° C 98% 1012.8 hPa 0 mm - 3 W/m² -
1777374014 16.67° C 98% 1012.8 hPa 0 mm - 3 W/m² -
1777373711 16.67° C 98% 1013 hPa 0 mm - 2 W/m² -
1777373409 16.67° C 98% 1012.8 hPa 0 mm - 1 W/m² -

* Rain latest hour (hover to see other rain measurements)
** Current wind speed in m/s (hover to see current wind gust speed)